Weather in Arkadak

Russia / Saratov Oblast     51°56′19″N   43°29′59″E
temp.,
°C
wind,
m/s
gust,
m/s
humid.,
%
clouds,
%
prec.,
mm/h
press.,
hPa
HPBL,
m
24 january, mon
mon2401:00−6ene51096100 0.9 1028339
04:00−6ene51091100 1.4 1029356
07:00−9ene51187100 0.0 1030277
10:00−10ene51385100 0.0 1031291
13:00−8e51285100 0.0 1030353
16:00−8ene51088100 0.0 1031329
19:00−10ene41190100 0.0 1031224
22:00−13ene37935 0.0 1031100
25 january, tue
tue2501:00−14ene499351 0.0 1031121
04:00−17e239698 0.0 103037
07:00−13e379361 0.0 1028134
10:00−14e3794100 0.0 1028150
13:00−10se3591100 0.0 1027206
16:00−8se359393 0.0 1025235
19:00−10se359749 0.1 102484
22:00−12sse369786 0.1 1023109
26 january, wed
wed2601:00−12s369785 0.1 1022104
04:00−12s359787 0.2 102187
07:00−11s249787 0.1 102081
10:00−10s249793 0.2 102097
13:00−7ssw3495100 0.1 1019180
16:00−5s2596100 0.1 1019283
19:00−9sse2298100 0.1 101918
22:00−6ssw3597100 0.2 1019178
27 january, thu
thu2701:00−10ssw3597100 0.1 102076
04:00−15s2210093 0.1 102016
07:00−17sse22100100 0.1 102022
10:00−12sse249795 0.1 102085
13:00−7s3594100 0.1 1019238
16:00−6s3595100 0.1 1018297
19:00−7s369798 0.1 1018134
22:00−8s369791 0.3 1018146
28 january, fri
fri2801:00−9ssw369687 0.2 1018122
04:00−10sse239871 0.3 101843
07:00−10s259898 0.1 101776
10:00−9s379681 0.3 1018148
13:00−6s4894100 0.1 1017371
16:00−6s499590 0.3 1016508
19:00−8s51095100 0.1 1015353
22:00−9s51294100 0.1 1014326